Flag for U.S.A. Weather past 2 weeks in Cheyenne, Wyoming, U.S.A.

Now
44 °F

Overcast.


Feels Like: 39 °F
Forecast: 38 / 45 °F
Wind: 10 mph from East

Location: Cheyenne Airport

Current Time: Apr 26, 2015 at 12:22:13 AM

Latest Report: Apr 25, 2015 at 11:53 PM


Visibility: 10 mi

Pressure: 29.66 "Hg

Humidity: 79%

Dew point: 38 °F

Location of CheyenneLocation

Historic Weather in Cheyenne — Graph

°F

Cheyenne temperature yesterday

Maximum temperature yesterday: 61 °F (at 1:53 PM)
Minimum temperature yesterday: 40 °F (at 5:53 AM)
Average temperature yesterday: 50 °F

Past Weeks' High & Low Weather Summary

 TemperatureHumidityPressure
High70 °F (Apr 14, 1:53 PM)100% (Apr 17, 5:53 AM)30.22 "Hg (Apr 17, 5:53 AM)
Low26 °F (Apr 20, 6:53 AM)10% (Apr 12, 4:53 PM)29.51 "Hg (Apr 24, 12:53 PM)
Average44 °F56%29.87 "Hg
* Reported Apr 10 10:53 PM — Apr 25 10:53 PM, Cheyenne, Weather by CustomWeather, © 2015

Note: Actual official high and low records may vary slightly from our data, if they occured in-between our weather recording intervals... More about our weather records

Advertising

Cheyenne weather history for previous 24 hours

 ConditionsComfort  
Time TempWeatherWind HumidityBarometerVisibility
10:53 PM
Sat, Apr 25
44 °FOvercast.13 mph82%29.67 "Hg10 mi
9:53 PM45 °FLight rain. Mostly cloudy.12 mph80%29.67 "Hg10 mi
8:53 PM46 °FOvercast.8 mph79%29.65 "Hg10 mi
7:53 PM48 °FBroken clouds.10 mph71%29.68 "Hg10 mi
6:53 PM50 °FPassing clouds.7 mph66%29.68 "Hg10 mi
5:53 PM52 °FPassing clouds.10 mph61%29.67 "Hg10 mi
4:53 PM51 °FMore clouds than sun.10 mph63%29.64 "Hg10 mi
3:57 PM49 °FThundershowers. Cloudy.18 mph66%29.79 "Hg10 mi
2:53 PM61 °FPartly sunny.13 mph29%29.56 "Hg10 mi
1:53 PM61 °FPartly sunny.13 mph30%29.57 "Hg10 mi
12:53 PM60 °FSunny.10 mph30%29.59 "Hg10 mi
11:53 AM60 °FSunny.6 mph32%29.59 "Hg10 mi
10:53 AM58 °FScattered clouds.3 mph35%29.59 "Hg10 mi
9:53 AM57 °FPartly sunny.8 mph39%29.59 "Hg10 mi
8:53 AM55 °FSunny.9 mph40%29.59 "Hg10 mi
7:53 AM46 °FSunny.6 mph58%29.62 "Hg10 mi
6:53 AM40 °FClear.5 mph68%29.64 "Hg10 mi
5:53 AM40 °FPassing clouds.3 mph65%29.62 "Hg10 mi
4:53 AM43 °FOvercast.6 mph60%29.59 "Hg10 mi
3:53 AM46 °FClear.10 mph51%29.58 "Hg10 mi
2:53 AM44 °FPassing clouds.7 mph60%29.58 "Hg10 mi
1:53 AM42 °FClear.5 mph65%29.57 "Hg10 mi
12:53 AM42 °FClear.9 mph68%29.56 "Hg10 mi
Weather by CustomWeather, © 2015

See weather overviewHow to use our weather pages